アトラス彗星

C/2020 H6 ( ATLAS )

English version
Home page
Updated on May 4, 2021

---------------------------------------------------------------------

・ プロフィール

発見日 2020年4月22日
発見光度 18.1等
発見者 James Robinson (Asteroid Terrestrial-Impact Last Alert System (ATLAS) search program)

・ 写真集

・ 軌道要素

Epoch 2021 Sept. 23.0 TT = JDT 2459480.5
T 2021 Oct. 1.07445 TT                                  Rudenko
q   4.7028881            (2000.0)            P               Q
z  -0.0001600      Peri.   20.34799     -0.74636274     +0.37991026
 +/-0.0000019      Node   213.70651     -0.65981049     -0.31488000
e   1.0007526      Incl.   79.96719     +0.08713659     +0.86978088
From 363 observations 2020 Apr. 22-2021 May 2, mean residual 0".5.

・ 星図

・ 光度変化

        m1 = 2.5 + 5 logΔ + 15.0 log r

---------------------------------------------------------------------

軌道要素はM.P.E.C. 2021-J28に掲載されたものです。
星図はステラナビゲータ Ver.10 (アストロアーツ) で作成したものです。
光度グラフはComet for Windowsで作成したものです。

---------------------------------------------------------------------

Copyright(C) Seiichi Yoshida (comet@aerith.net). All rights reserved.